Flag for Germany Weather past 2 weeks in Lünen, North Rhine-Westphalia, Germany

61 °F

Passing clouds.

Feels Like: 61 °F
Forecast: 54 / 58 °F
Wind: 7 mph from South

Location: Dortmund / Wickede

Current Time: Oct 7, 2015 at 10:49:33 AM

Latest Report: Oct 7, 2015 at 10:20 AM

Visibility: N/A

Pressure: 29.80 "Hg

Humidity: 77%

Dew point: 54 °F

Location of LünenLocation

Historic Weather in Lünen — Graph


Lünen temperature yesterday

Maximum temperature yesterday: 68 °F (at 3:50 PM)
Minimum temperature yesterday: 55 °F (at 5:20 AM)
Average temperature yesterday: 62 °F

Past Weeks' High & Low Weather Summary

High68 °F (Oct 3, 2:50 PM)94% (Sep 26, 5:20 AM)30.66 "Hg (Sep 26, 5:20 AM)
Low36 °F (Oct 2, 6:20 AM)39% (Sep 30, 4:20 PM)29.50 "Hg (Sep 22, 4:20 PM)
Average55 °F71%30.15 "Hg
* Reported Sep 22 9:20 AM — Oct 7 9:20 AM, Lünen, Weather by CustomWeather, © 2015

Note: Actual official high and low records may vary slightly from our data, if they occured in-between our weather recording intervals... More about our weather records


Lünen weather history for previous 24 hours

Time TempWeatherWind HumidityBarometerVisibility
9:20 AM
Wed, Oct 7
59 °FScattered clouds.7 mph82%29.80 "HgN/A
8:50 AM59 °FScattered showers. Scattered clouds.9 mph82%29.77 "HgN/A
8:20 AM57 °FScattered showers. Passing clouds.6 mph88%29.77 "HgN/A
7:50 AM57 °FPassing clouds.6 mph82%29.74 "HgN/A
7:20 AM57 °FClear.6 mph88%29.74 "Hg10 mi
6:50 AM57 °FClear.6 mph82%29.74 "Hg10 mi
6:20 AM57 °FPassing clouds.5 mph88%29.74 "HgN/A
5:50 AM57 °FClear.7 mph82%29.74 "Hg10 mi
5:20 AM59 °FClear.6 mph82%29.71 "Hg10 mi
10:50 PM
Tue, Oct 6
59 °FClear.9 mph82%29.68 "Hg10 mi
10:20 PM59 °FClear.8 mph88%29.68 "Hg10 mi
9:50 PM61 °FClear.8 mph83%29.65 "Hg10 mi
9:20 PM61 °FClear.9 mph83%29.65 "Hg10 mi
8:50 PM61 °FClear.7 mph88%29.65 "Hg10 mi
8:20 PM61 °FPassing clouds.5 mph88%29.65 "HgN/A
7:50 PM61 °FSprinkles. Partly sunny.9 mph88%29.65 "HgN/A
7:20 PM63 °FScattered showers. Partly sunny.7 mph83%29.65 "HgN/A
6:50 PM63 °FSunny.7 mph83%29.62 "Hg10 mi
6:20 PM63 °FSprinkles. Scattered clouds.7 mph83%29.62 "HgN/A
5:50 PM64 °FScattered showers. Scattered clouds.9 mph78%29.62 "Hg6 mi
5:20 PM66 °FScattered clouds.7 mph68%29.62 "HgN/A
4:50 PM68 °FScattered clouds.7 mph64%29.62 "HgN/A
4:20 PM68 °FScattered clouds.10 mph64%29.62 "HgN/A
3:50 PM68 °FScattered clouds.7 mph64%29.62 "HgN/A
3:20 PM66 °FScattered clouds.9 mph68%29.62 "HgN/A
2:50 PM66 °FPartly sunny.9 mph68%29.62 "HgN/A
2:20 PM66 °FScattered clouds.9 mph68%29.62 "HgN/A
1:50 PM66 °FScattered clouds.9 mph68%29.62 "HgN/A
1:20 PM64 °FPartly sunny.9 mph73%29.65 "HgN/A
12:50 PM63 °FPartly sunny.6 mph77%29.65 "HgN/A
12:20 PM61 °FPartly sunny.8 mph83%29.65 "HgN/A
11:50 AM61 °FPartly sunny.10 mph83%29.65 "HgN/A
11:20 AM61 °FOvercast.12 mph77%29.62 "HgN/A
10:50 AM61 °FOvercast.10 mph83%29.62 "HgN/A
10:20 AM59 °FOvercast.9 mph88%29.62 "HgN/A
Weather by CustomWeather, © 2015

See weather overviewHow to use our weather pages